Alpena, MI

1:50 PM EDT on May 27, 2017 (GMT -0400)
Alpena County Regional

Weather History for KAPN - January, 2014

Change the Weather History Date:

Saturday, January 11, 2014

  Actual Average Record
Temperature  
Mean Temperature 36 °F 19 °F  
Max Temperature 39 °F 27 °F 50 °F (2012)
Min Temperature 32 °F 12 °F -20 °F (1984)
Degree Days  
Heating Degree Days 29 46  
Month to date heating degree days 601 495  
Since 1 July heating degree days 3943 3556  
Moisture  
Dew Point 34 °F    
Average Humidity 91    
Maximum Humidity 100    
Minimum Humidity 82    
Precipitation  
Precipitation 0.27 in 0.05 in 0.54 in (2013)
Month to date precipitation 0.86 0.63  
Year to date precipitation 0.86 0.63  
Snow  
Snow 0.10 in 0.70 in 5.10 in (1976)
Month to date snowfall 4.1 7.6  
Since 1 July snowfall 31.1 34.9  
Snow Depth 9.00 in    
Sea Level Pressure  
Sea Level Pressure 29.34 in    
Wind  
Wind Speed 8 mph (SW)    
Max Wind Speed 17 mph    
Max Gust Speed 29 mph    
Visibility 7 miles    
Events Fog , Rain , Snow    
T = Trace of Precipitation, MM = Missing Value Source: NWS Daily Summary

Daily Weather History Graph

Daily Weather History Graph

Search for Another Location

Airport or City:

Trip Planner

Search our weather history database for the weather conditions in past years. The results will help you decide how hot, cold, wet, or windy it might be!

Date:

Astronomy

Jan. 11, 2014 Rise Set
Actual Time 8:11 AM EST 5:13 PM EST
Civil Twilight 7:37 AM EST 5:46 PM EST
Nautical Twilight 7:01 AM EST 6:23 PM EST
Astronomical Twilight 6:25 AM EST 6:58 PM EST
Moon 1:59 PM EST (1/11) 4:12 AM EST (1/11)
Length of Visible Light 10h 08m
Length of Day
9h 02m
Waxing Gibbous, 83% of the Moon is Illuminated
Jan 11
Waxing Gibbous
Jan 15
Full
Jan 24
Last Quarter
Jan 30
New
Feb 6
First Quarter

Hourly Weather History & Observations

Time (EST) Temp. Windchill Dew Point Humidity Pressure Visibility Wind Dir Wind Speed Gust Speed Precip Events Conditions
12:02 AM 34.0 °F 25.0 °F 34.0 °F 100% 29.59 in 6.0 mi SSE 12.7 mph - 0.01 in Rain Light Rain
12:54 AM 35.1 °F 26.4 °F 34.0 °F 96% 29.55 in 10.0 mi SSE 12.7 mph - 0.05 in Rain Light Rain
1:54 AM 36.0 °F 30.3 °F 36.0 °F 100% 29.52 in 6.0 mi South 6.9 mph - 0.05 in Rain Light Rain
2:33 AM 37.0 °F 29.8 °F 36.0 °F 96% 29.47 in 10.0 mi South 10.4 mph - 0.02 in Rain Light Rain
2:40 AM 37.0 °F 28.9 °F 36.0 °F 96% 29.46 in 10.0 mi South 12.7 mph - 0.02 in Rain Light Rain
2:54 AM 37.0 °F 28.9 °F 36.0 °F 96% 29.48 in 10.0 mi South 12.7 mph - 0.02 in   Overcast
3:54 AM 37.0 °F 31.6 °F 36.0 °F 96% 29.45 in 10.0 mi South 6.9 mph - 0.01 in   Overcast
4:34 AM 36.0 °F 32.1 °F 35.1 °F 97% 29.40 in 10.0 mi SSE 4.6 mph - N/A   Overcast
4:54 AM 36.0 °F 31.1 °F 36.0 °F 100% 29.40 in 10.0 mi SSE 5.8 mph - N/A   Overcast
5:54 AM 37.0 °F 32.4 °F 36.0 °F 96% 29.39 in 10.0 mi South 5.8 mph - N/A   Overcast
6:54 AM 36.0 °F 32.1 °F 36.0 °F 100% 29.36 in 10.0 mi SSE 4.6 mph - N/A   Overcast
7:23 AM 36.0 °F 32.1 °F 35.1 °F 97% 29.34 in 2.0 mi SSE 4.6 mph - N/A   Overcast
7:31 AM 36.0 °F 32.1 °F 36.0 °F 100% 29.33 in 1.2 mi SSE 4.6 mph - N/A   Overcast
7:41 AM 35.1 °F 32.2 °F 35.1 °F 100% 29.32 in 0.8 mi SSE 3.5 mph - N/A   Overcast
7:54 AM 34.0 °F 28.8 °F 34.0 °F 100% 29.34 in 0.8 mi SSE 5.8 mph - N/A   Overcast
8:13 AM 34.0 °F 28.8 °F 34.0 °F 100% 29.31 in 1.0 mi SSE 5.8 mph - N/A   Overcast
8:54 AM 36.0 °F 32.1 °F 35.1 °F 97% 29.33 in 2.0 mi SE 4.6 mph - 0.00 in Rain Light Rain
9:02 AM 36.0 °F - 36.0 °F 100% 29.31 in 4.0 mi Calm Calm - 0.00 in Rain Light Rain
9:11 AM 37.0 °F - 37.0 °F 100% 29.31 in 1.8 mi Calm Calm - 0.01 in Rain Light Rain
9:21 AM 37.0 °F - 36.0 °F 96% 29.30 in 0.5 mi Calm Calm - 0.01 in Fog , Rain Light Rain
9:28 AM 36.0 °F - 36.0 °F 100% 29.30 in 0.2 mi Calm Calm - 0.01 in Fog , Rain Light Rain
9:54 AM 36.0 °F 33.3 °F 36.0 °F 100% 29.31 in 0.2 mi SE 3.5 mph - 0.02 in Fog , Rain Light Rain
10:38 AM 34.0 °F 28.0 °F 34.0 °F 100% 29.29 in 0.2 mi SSE 6.9 mph - 0.01 in Fog , Rain Light Rain
10:48 AM 35.6 °F 32.8 °F 35.6 °F 100% 29.27 in 0.2 mi SSE 3.5 mph - 0.01 in Fog , Rain Rain
10:54 AM 36.0 °F 33.3 °F 36.0 °F 100% 29.29 in 0.2 mi South 3.5 mph - 0.03 in Fog , Rain Rain
11:24 AM 36.0 °F 31.1 °F 36.0 °F 100% 29.26 in 0.8 mi South 5.8 mph - 0.04 in Rain Light Rain
11:28 AM 37.0 °F 32.4 °F 37.0 °F 100% 29.26 in 2.5 mi South 5.8 mph - 0.04 in Rain Light Rain
11:35 AM 37.0 °F 32.4 °F 37.0 °F 100% 29.26 in 5.0 mi South 5.8 mph - 0.05 in Rain Light Rain
11:54 AM 37.9 °F 35.5 °F 37.9 °F 100% 29.26 in 4.0 mi SW 3.5 mph - 0.07 in Rain Light Rain
12:26 PM 37.9 °F 34.4 °F 37.9 °F 100% 29.22 in 10.0 mi WSW 4.6 mph - 0.00 in   Overcast
12:54 PM 37.9 °F 33.5 °F 37.0 °F 97% 29.23 in 10.0 mi West 5.8 mph - 0.00 in   Overcast
1:54 PM 37.0 °F 31.0 °F 36.0 °F 96% 29.21 in 10.0 mi West 8.1 mph - 0.01 in Rain Light Rain
2:14 PM 36.0 °F 29.0 °F 35.1 °F 97% 29.19 in 8.0 mi WNW 9.2 mph 17.3 mph 0.01 in Rain Light Rain
2:21 PM 36.0 °F 29.6 °F 35.1 °F 97% 29.19 in 10.0 mi WNW 8.1 mph - 0.01 in Rain Light Rain
2:38 PM 36.0 °F 28.5 °F 34.0 °F 93% 29.20 in 10.0 mi West 10.4 mph - 0.01 in   Overcast
2:52 PM 35.6 °F 29.2 °F 33.8 °F 93% 29.20 in 10.0 mi West 8.1 mph - 0.01 in   Overcast
2:54 PM 36.0 °F 29.0 °F 33.1 °F 89% 29.22 in 10.0 mi West 9.2 mph - 0.01 in   Overcast
3:25 PM 35.1 °F 29.3 °F 33.1 °F 92% 29.21 in 10.0 mi West 6.9 mph - 0.00 in   Overcast
3:54 PM 34.0 °F 27.2 °F 32.0 °F 92% 29.25 in 10.0 mi WNW 8.1 mph 19.6 mph 0.00 in Rain Light Rain
4:23 PM 33.1 °F 25.5 °F 30.9 °F 92% 29.25 in 5.0 mi WNW 9.2 mph - 0.00 in Snow Light Snow
4:28 PM 33.1 °F 25.5 °F 30.9 °F 92% 29.26 in 1.8 mi WNW 9.2 mph - 0.00 in Snow Light Snow
4:37 PM 33.1 °F 26.9 °F 30.9 °F 92% 29.26 in 2.0 mi Variable 6.9 mph - 0.00 in Snow Light Snow
4:40 PM 33.1 °F 26.9 °F 30.9 °F 92% 29.26 in 3.0 mi West 6.9 mph - 0.00 in Snow Light Snow
4:54 PM 33.1 °F 24.9 °F 30.9 °F 92% 29.29 in 10.0 mi West 10.4 mph - 0.00 in   Overcast
5:54 PM 33.1 °F 24.4 °F 30.9 °F 92% 29.33 in 10.0 mi WNW 11.5 mph 18.4 mph 0.00 in   Overcast
6:54 PM 33.1 °F 23.9 °F 28.9 °F 85% 29.37 in 10.0 mi WNW 12.7 mph 21.9 mph 0.00 in   Overcast
7:54 PM 32.0 °F 23.0 °F 28.0 °F 85% 29.40 in 6.0 mi West 11.5 mph 20.7 mph 0.00 in Snow Light Snow
8:20 PM 32.0 °F 22.1 °F 28.9 °F 88% 29.39 in 7.0 mi West 13.8 mph 24.2 mph 0.00 in Snow Light Snow
8:54 PM 32.0 °F 23.0 °F 28.0 °F 85% 29.42 in 10.0 mi West 11.5 mph 18.4 mph 0.00 in   Overcast
9:54 PM 32.0 °F 23.0 °F 28.0 °F 85% 29.46 in 10.0 mi West 11.5 mph 25.3 mph N/A   Overcast
10:27 PM 32.0 °F 23.0 °F 28.0 °F 85% 29.45 in 10.0 mi WNW 11.5 mph 24.2 mph N/A   Overcast
10:54 PM 32.0 °F 24.2 °F 28.0 °F 85% 29.49 in 10.0 mi WNW 9.2 mph 23.0 mph N/A   Overcast
11:54 PM 32.0 °F 24.8 °F 28.0 °F 85% 29.51 in 8.0 mi West 8.1 mph - N/A   Overcast